This demonstration page uses our WeatherBlox Daily Observations layout. Learn more.

Left ArrowRight Arrow

Hourly Observations for August 31, 2017

Temp ( °F °C ) Dew Point ( °F °C ) Humidity (%) Winds ( mph kmh ) Pressure ( in mb ) Visibility ( mi km ) Precip ( " mm )
12:51 am 00:51 Clear 75 23.9 43 6.1 32 32 E 10 17 29.84 1011 10 16.0934 0 0.0254
1:51 am 01:51 Clear 73 22.8 44 6.7 35 35 SE 7 11 29.85 1011 10 16.0934 0 0
2:51 am 02:51 Clear 76 24.4 43 6.1 31 31 ESE 9 15 29.84 1010 10 16.0934 0 0
3:51 am 03:51 Clear 71 21.7 44 6.7 38 38 SSE 12 19 29.85 1011 10 16.0934 0 0
4:51 am 04:51 Clear 72 22.2 43 6.1 35 35 SSE 8 13 29.86 1011 10 16.0934 0 0
5:51 am 05:51 Clear 71 21.7 47 8.3 42 42 SE 10 17 29.89 1012 10 16.0934 0 0
6:51 am 06:51 Sunny 73 22.8 48 8.9 41 41 ESE 9 15 29.9 1013 10 16.0934 0 0
7:51 am 07:51 Sunny 78 25.6 49 9.4 36 36 SE 14 22 29.91 1013 10 16.0934 0 0
8:51 am 08:51 Sunny 82 27.8 47 8.3 29 29 E 12 19 29.91 1013 10 16.0934 0 0
9:51 am 09:51 Sunny 87 30.6 47 8.3 25 25 SSE 10 17 29.91 1013 10 16.0934 0 0
10:51 am 10:51 Sunny 89 31.7 44 6.7 21 21 SSE 8 13 29.89 1012 10 16.0934 0 0
11:51 am 11:51 Sunny 94 34.4 43 6.1 17 17 ESE 14 22 29.86 1011 10 16.0934 0 0
12:51 pm 12:51 Sunny 95 35 42 5.6 16 16 ESE 10 17 29.83 1010 10 16.0934 0 0
1:51 pm 13:51 Sunny 97 36.1 42 5.6 15 15 S 15 24 29.8 1009 10 16.0934 0 0
2:51 pm 14:51 Sunny 97 36.1 41 5 14 14 ESE 10 17 29.76 1008 10 16.0934 0 0
3:51 pm 15:51 Sunny 97 36.1 42 5.6 15 15 S 10 17 29.76 1008 10 16.0934 0 0
4:51 pm 16:51 Sunny 96 35.6 41 5 15 15 S 9 15 29.74 1007 10 16.0934 0 0
5:51 pm 17:51 Sunny 94 34.4 41 5 16 16 SSE 12 19 29.74 1007 10 16.0934 0 0
6:51 pm 18:51 Clear 89 31.7 42 5.6 19 19 SSE 8 13 29.75 1008 10 16.0934 0 0
7:51 pm 19:51 Clear 85 29.4 42 5.6 22 22 SE 7 11 29.78 1009 10 16.0934 0 0
8:51 pm 20:51 Clear 79 26.1 42 5.6 27 27 ESE 7 11 29.81 1010 10 16.0934 0 0
9:51 pm 21:51 Clear 79 26.1 42 5.6 27 27 ESE 6 9 29.82 1010 10 16.0934 0 0
10:51 pm 22:51 Clear 78 25.6 41 5 27 27 SSE 9 15 29.82 1010 10 16.0934 0 0
11:51 pm 23:51 Clear 77 25 40 4.4 26 26 SE 10 17 29.82 1010 10 16.0934 0 0

Powered by AerisWeather